Weather History for Pinedale, WY

Change the Weather History Date:

Monday, September 9, 2013

  Actual Average (KBPI) Record (KBPI)
Temperature  
Mean Temperature 52 °F 52 °F  
Max Temperature 69 °F 71 °F 82 °F (2012)
Min Temperature 35 °F 34 °F 11 °F (1976)
Degree Days  
Heating Degree Days 13 13  
Month to date heating degree days 102  
Since 1 July heating degree days 395  
Cooling Degree Days 0 0  
Month to date cooling degree days 0  
Year to date cooling degree days 35  
Growing Degree Days 2 (Base 50)    
Moisture  
Dew Point 39 °F    
Average Humidity 66    
Maximum Humidity 100    
Minimum Humidity 25    
Precipitation  
Precipitation 0.00 in 0.03 in 0.27 in (2005)
Month to date precipitation 0.24  
Year to date precipitation 4.90  
Sea Level Pressure  
Sea Level Pressure 30.15 in    
Wind  
Wind Speed 3 mph (WNW)    
Max Wind Speed 9 mph    
Max Gust Speed -    
Visibility 10 miles    
Events      
T = Trace of Precipitation, MM = Missing Value Source: NWS Daily Summary

Daily Weather History Graph

Daily Weather History Graph

Search for Another Location

Airport:

Trip Planner

Search our weather history database for the weather conditions in past years. The results will help you decide how hot, cold, wet, or windy it might be!

Date:

Astronomy

Sep. 09, 2013 Rise Set
Actual Time 6:52 AM MDT 7:39 PM MDT
Civil Twilight 6:24 AM MDT 8:07 PM MDT
Nautical Twilight 5:50 AM MDT 8:41 PM MDT
Astronomical Twilight 5:14 AM MDT 9:16 PM MDT
Moon 11:25 AM MDT (9/9) 9:50 PM MDT (9/9)
Length of Visible Light 13h 43m
Length of Day
12h 46m
Waxing Crescent, 19% of the Moon is Illuminated
Sep 9
Waxing Crescent
Sep 12
First Quarter
Sep 19
Full
Sep 26
Last Quarter
Oct 4
New

Hourly Weather History & Observations

Time (MDT) Temp. Windchill Dew Point Humidity Pressure Visibility Wind Dir Wind Speed Gust Speed Precip Events Conditions
12:15 AM 46.4 °F - 46.4 °F 100% 30.16 in 10.0 mi Calm Calm - N/A   Clear
12:35 AM 46.4 °F - 46.4 °F 100% 30.16 in 10.0 mi Calm Calm - N/A   Clear
12:55 AM 46.4 °F - 46.4 °F 100% 30.16 in 10.0 mi Calm Calm - N/A   Clear
1:15 AM 46.4 °F - 46.4 °F 100% 30.16 in 10.0 mi Calm Calm - N/A   Clear
1:35 AM 44.6 °F - 44.6 °F 100% 30.16 in 10.0 mi Calm Calm - N/A   Clear
1:55 AM 42.8 °F - 42.8 °F 100% 30.16 in 10.0 mi Calm Calm - N/A   Clear
2:15 AM 42.8 °F 39.3 °F 42.8 °F 100% 30.16 in 10.0 mi WNW 5.8 mph - N/A   Clear
2:35 AM 41.0 °F 39.0 °F 41.0 °F 100% 30.16 in 7.0 mi West 3.5 mph - N/A   Clear
2:55 AM 41.0 °F 37.1 °F 41.0 °F 100% 30.16 in 7.0 mi West 5.8 mph - N/A   Clear
3:15 AM 41.0 °F 38.0 °F 41.0 °F 100% 30.16 in 10.0 mi WNW 4.6 mph - N/A   Clear
3:35 AM 41.0 °F 37.1 °F 41.0 °F 100% 30.16 in 10.0 mi NW 5.8 mph - N/A   Clear
3:55 AM 39.2 °F 35.9 °F 39.2 °F 100% 30.16 in 10.0 mi WNW 4.6 mph - N/A   Clear
4:15 AM 39.2 °F 35.9 °F 39.2 °F 100% 30.16 in 10.0 mi WNW 4.6 mph - N/A   Clear
4:35 AM 41.0 °F 38.0 °F 41.0 °F 100% 30.16 in 10.0 mi West 4.6 mph - N/A   Clear
4:55 AM 41.0 °F 39.0 °F 41.0 °F 100% 30.16 in 10.0 mi NW 3.5 mph - N/A   Clear
5:15 AM 41.0 °F 39.0 °F 39.2 °F 93% 30.16 in 10.0 mi WNW 3.5 mph - N/A   Clear
5:35 AM 39.2 °F - 39.2 °F 100% 30.16 in 10.0 mi Calm Calm - N/A   Clear
5:55 AM 37.4 °F 33.8 °F 37.4 °F 100% 30.16 in 10.0 mi West 4.6 mph - N/A   Clear
6:15 AM 37.4 °F 33.8 °F 37.4 °F 100% 30.15 in 10.0 mi West 4.6 mph - N/A   Clear
6:35 AM 37.4 °F 33.8 °F 37.4 °F 100% 30.16 in 10.0 mi West 4.6 mph - N/A   Clear
6:55 AM 37.4 °F 33.8 °F 37.4 °F 100% 30.16 in 10.0 mi West 4.6 mph - N/A   Clear
7:15 AM 35.6 °F 30.7 °F 35.6 °F 100% 30.16 in 10.0 mi West 5.8 mph - N/A   Clear
7:35 AM 37.4 °F 33.8 °F 37.4 °F 100% 30.16 in 10.0 mi West 4.6 mph - N/A   Clear
7:55 AM 41.0 °F 37.1 °F 41.0 °F 100% 30.16 in 10.0 mi WNW 5.8 mph - N/A   Clear
8:15 AM 42.8 °F 40.1 °F 42.8 °F 100% 30.16 in 10.0 mi WNW 4.6 mph - N/A   Clear
8:35 AM 46.4 °F 45.2 °F 44.6 °F 93% 30.16 in 10.0 mi WNW 3.5 mph - N/A   Clear
8:55 AM 50.0 °F - 46.4 °F 87% 30.16 in 10.0 mi NW 3.5 mph - N/A   Clear
9:15 AM 51.8 °F - 46.4 °F 82% 30.16 in 10.0 mi Calm Calm - N/A   Clear
9:35 AM 53.6 °F - 46.4 °F 77% 30.16 in 10.0 mi Calm Calm - N/A   Clear
9:55 AM 55.4 °F - 46.4 °F 72% 30.17 in 10.0 mi Calm Calm - N/A   Clear
10:15 AM 57.2 °F - 46.4 °F 67% 30.16 in 10.0 mi Calm Calm - N/A   Clear
10:35 AM 57.2 °F - 44.6 °F 63% 30.16 in 10.0 mi Calm Calm - N/A   Clear
10:55 AM 59.0 °F - 44.6 °F 59% 30.17 in 10.0 mi East 3.5 mph - N/A   Clear
11:15 AM 59.0 °F - 42.8 °F 55% 30.17 in 10.0 mi Calm Calm - N/A   Clear
11:35 AM 60.8 °F - 42.8 °F 52% 30.16 in 10.0 mi Calm Calm - N/A   Scattered Clouds
11:55 AM 60.8 °F - 44.6 °F 55% 30.16 in 10.0 mi Calm Calm - N/A   Scattered Clouds
12:15 PM 62.6 °F - 42.8 °F 48% 30.15 in 10.0 mi Calm Calm - N/A   Scattered Clouds
12:35 PM 62.6 °F - 39.2 °F 42% 30.15 in 10.0 mi NNW 6.9 mph - N/A   Clear
12:55 PM 62.6 °F - 39.2 °F 42% 30.15 in 10.0 mi Calm Calm - N/A   Scattered Clouds
1:15 PM 64.4 °F - 33.8 °F 32% 30.14 in 10.0 mi NW 5.8 mph - N/A   Scattered Clouds
1:35 PM 64.4 °F - 35.6 °F 34% 30.14 in 10.0 mi South 4.6 mph - N/A   Clear
1:55 PM 66.2 °F - 37.4 °F 35% 30.13 in 10.0 mi WSW 5.8 mph - N/A   Clear
2:15 PM 66.2 °F - 35.6 °F 32% 30.13 in 10.0 mi West 4.6 mph - N/A   Clear
2:35 PM 68.0 °F - 33.8 °F 28% 30.12 in 10.0 mi WNW 8.1 mph - N/A   Clear
2:55 PM 68.0 °F - 33.8 °F 28% 30.11 in 10.0 mi NNW 5.8 mph - N/A   Clear
3:15 PM 68.0 °F - 33.8 °F 28% 30.11 in 10.0 mi NW 9.2 mph - N/A   Clear
3:35 PM 68.0 °F - 32.0 °F 26% 30.11 in 10.0 mi NW 6.9 mph - N/A   Clear
3:55 PM 69.8 °F - 32.0 °F 25% 30.11 in 10.0 mi WNW 4.6 mph - N/A   Clear
4:15 PM 69.8 °F - 32.0 °F 25% 30.10 in 10.0 mi NW 6.9 mph - N/A   Clear
4:35 PM 69.8 °F - 32.0 °F 25% 30.10 in 10.0 mi NNW 4.6 mph - N/A   Clear
4:55 PM 69.8 °F - 32.0 °F 25% 30.10 in 10.0 mi WNW 4.6 mph - N/A   Scattered Clouds
5:15 PM 69.8 °F - 32.0 °F 25% 30.11 in 10.0 mi West 8.1 mph - N/A   Clear
5:35 PM 69.8 °F - 33.8 °F 27% 30.11 in 10.0 mi WNW 5.8 mph - N/A   Clear
5:55 PM 69.8 °F - 32.0 °F 25% 30.11 in 10.0 mi West 8.1 mph - N/A   Clear
6:15 PM 69.8 °F - 32.0 °F 25% 30.11 in 10.0 mi WNW 8.1 mph - N/A   Clear
6:35 PM 68.0 °F - 32.0 °F 26% 30.11 in 10.0 mi West 5.8 mph - N/A   Clear
6:55 PM 68.0 °F - 32.0 °F 26% 30.11 in 10.0 mi NW 6.9 mph - N/A   Clear
7:15 PM 66.2 °F - 33.8 °F 30% 30.11 in 10.0 mi NNW 8.1 mph - N/A   Clear
7:35 PM 62.6 °F - 37.4 °F 39% 30.12 in 10.0 mi NNW 6.9 mph - N/A   Clear
7:55 PM 59.0 °F - 37.4 °F 45% 30.12 in 10.0 mi NW 8.1 mph - N/A   Clear
8:15 PM 57.2 °F - 37.4 °F 48% 30.13 in 10.0 mi NNW 8.1 mph - N/A   Clear
8:35 PM 53.6 °F - 39.2 °F 58% 30.13 in 10.0 mi WNW 6.9 mph - N/A   Clear
8:55 PM 53.6 °F - 37.4 °F 54% 30.14 in 10.0 mi WNW 5.8 mph - N/A   Clear
9:15 PM 51.8 °F - 39.2 °F 62% 30.14 in 10.0 mi WNW 4.6 mph - N/A   Clear
9:35 PM 51.8 °F - 37.4 °F 58% 30.15 in 10.0 mi West 6.9 mph - N/A   Clear
9:55 PM 51.8 °F - 37.4 °F 58% 30.15 in 10.0 mi WNW 4.6 mph - N/A   Clear
10:15 PM 50.0 °F - 39.2 °F 66% 30.16 in 10.0 mi NW 6.9 mph - N/A   Clear
10:35 PM 50.0 °F - 39.2 °F 66% 30.16 in 10.0 mi WNW 6.9 mph - N/A   Clear
10:55 PM 50.0 °F - 39.2 °F 66% 30.16 in 10.0 mi NW 5.8 mph - N/A   Clear
11:15 PM 50.0 °F - 39.2 °F 66% 30.17 in 10.0 mi NNW 6.9 mph - N/A   Clear
11:35 PM 50.0 °F - 39.2 °F 66% 30.18 in 10.0 mi NW 5.8 mph - N/A   Clear
11:55 PM 46.4 °F - 39.2 °F 76% 30.18 in 10.0 mi Calm Calm - N/A   Clear